Miscellaneous Local Product
Issued by NWS North Platte, NE

Home | Current Version | Previous Version | Text Only | Print | Product List | Glossary On
Versions: 1 2 3 4 5 6 7 8 9 10 11 12 13 14 15 16 17 18 19 20 21 22 23 24 25 26 27 28 29 30 31 32 33 34 35 36 37 38 39 40 41 42 43 44 45 46 47 48 49 50
000
AXUS43 KLBF 170510
MISLBF


WESTERN AND NORTH CENTRAL NEBRASKA HOURLY WEATHER ROUNDUP
NATIONAL WEATHER SERVICE NORTH PLATTE NE
1100 PM CST SAT DEC 16 2017

NOTE: "FAIR" INDICATES FEW OR NO CLOUDS BELOW 12,000 FEET WITH NO
SIGNIFICANT WEATHER AND/OR OBSTRUCTIONS TO VISIBILITY.

NOTE: STATIONS NOT REPORTING VARIABLES SUCH AS SKY/WEATHER OR
PRESSURE ARE PROVIDED BY RAWS AND APRS NETWORKS AND ARE NOT UNDER
NATIONAL WEATHER SERVICE QUALITY CONTROL.

...OBSERVATIONS IN AND NEAR THE EASTERN PANHANDLE OF NEBRASKA...

CITY           SKY/WX    TMP DP  RH WIND       PRES   REMARKS
PINE RIDGE     CLOUDY    30  25  81 NE3       30.03S
GORDON         CLOUDY    32  29  88 NE3       30.02R
CHADRON        CLOUDY    30  26  85 NE5       30.04S WCI  25
ALLIANCE       CLOUDY    31  27  85 NE10      30.00S WCI  22
SIDNEY         CLOUDY    32  29  88 E13       29.97S WCI  22
CRESCENT LAKE    N/A     31  28  87 NE9         N/A  WCI  23
$$

...OBSERVATIONS IN NORTHERN NEBRASKA AND FAR SOUTHERN SOUTH DAKOTA...

CITY           SKY/WX    TMP DP  RH WIND       PRES   REMARKS
WINNER         CLOUDY    36  31  82 N6        30.05S WCI  31
VALENTINE      CLOUDY    37  31  78 N10       30.04S WCI  30
THEDFORD       CLOUDY    37  32  84 NE10      30.02S WCI  29
AINSWORTH      CLOUDY    36  33  92 N6        30.03R WCI  31
O`NEILL        CLOUDY    35  35  99 N9        30.03S WCI  28
ORD            CLOUDY    37  33  85 N8        30.01R WCI  31
BROKEN BOW     CLOUDY    38  33  82 NE14      29.98R WCI  30
VALENTINE NWR    N/A     34  31  89 N6          N/A  WCI  29
HALSEY           N/A     36  32  86 NE6         N/A  WCI  31
BUTTE            N/A     36  32  87 NE6         N/A  WCI  31
EWING            N/A     33  31  94 NE3         N/A
$$

...OBSERVATIONS IN SOUTHWEST NEBRASKA AND FAR NORTHEAST COLORADO...

CITY           SKY/WX    TMP DP  RH WIND       PRES   REMARKS
WRAY           CLOUDY    36  32  87 NE13      29.96R WCI  27
HOLYOKE        CLOUDY    36  32  87 NE12      29.96S WCI  27
IMPERIAL       CLOUDY    36  33  89 NE10      29.97R WCI  28
OGALLALA       CLOUDY    37  32  83 NE13      29.99S WCI  28
NORTH PLATTE   CLOUDY    38  33  82 NE18      29.97R WCI  28
MCCOOK         CLEAR     31  29  92 NE14      29.94R WCI  21
LEXINGTON      CLOUDY    36  32  85 NE15      29.97S WCI  27
STAPLETON        N/A     35  32  89 NE3         N/A
GOTHENBURG       N/A     37  31  79 NE6         N/A  WCI  32
CALLAWAY         N/A     36  33  90 E6          N/A  WCI  31
$$

...OBSERVATIONS IN CENTRAL LINCOLN COUNTY AREA...

CITY           SKY/WX    TMP DP  RH WIND       PRES   REMARKS
N.P. AIRPORT   CLOUDY    38  33  82 NE18      29.97R WCI  28
N.P. DOWNTOWN    N/A     36  32  87 NE12G20     N/A  WCI  28
N.P. SOUTHEAST   N/A     36  31  83 NE7G14      N/A  WCI  30
N.P. HILLCREST   N/A     36  33  88 NE18        N/A  WCI  26
$$

...SOME OBSERVATIONS FROM AROUND THE REGION...

CITY           SKY/WX    TMP DP  RH WIND       PRES   REMARKS
DENVER         CLOUDY    30  24  78 CALM      29.94R
GRAND JUNCTION CLOUDY    22   5  48 CALM      29.88R
LARAMIE        CLOUDY    24  21  88 SE16G25   29.85R WCI  11
CHEYENNE       FOG       26  26 100 E8        29.93R VSB 1/4 WCI  18
CASPER         LGT SNOW  25  22  88 N8        29.96R FOG     WCI  16
BISMARCK       CLOUDY    27  25  92 SW6       30.07S WCI  20
RAPID CITY     CLOUDY    32  23  69 N5        30.06S WCI  27
PIERRE         CLOUDY    33  31  92 NW5       30.06F WCI  29
SIOUX FALLS    MOCLDY    28  27  96 N3        30.05R
OMAHA          CLOUDY    35  26  69 N6        29.99R WCI  30
GRAND ISLAND   CLOUDY    32  31  96 N12       29.98R WCI  23
SCOTTSBLUFF    CLOUDY    33  27  78 E8        30.01R WCI  26
KANSAS CITY    CLOUDY    47  27  45 S12       29.96S
HILL CITY      PTCLDY    37  27  67 N22G30    29.87S WCI  26
WICHITA        CLOUDY    53  28  38 S18       29.94R
DODGE CITY     CLOUDY    48  24  39 S14       29.82R
OKLAHOMA CITY  DRIZZLE   42  40  92 S13       29.98R FOG
DALLAS         LGT RAIN  45  43  93 S9        30.06R
AMARILLO       CLEAR     37  33  85 S14       29.82R WCI  28
$$




USA.gov is the U.S. government's official web portal to all federal, state and local government web resources and services.